Location: Auttagershofen
(48.1940°N, 10.0237°E)
Time: 21:50:53
(UTC+00:00)

Lacrosse 5 rocket - Pass Details

Date: 12 April 2026
Orbit: 390 x 471 km, 57.0° (Epoch: 19 May)

Event Time Altitude Azimuth Distance (km) Brightness Sun altitude
Rises 20:52:50 0° 266° (W) 2,290 5.0 -24.2°
Reaches altitude 10° 20:55:06 10° 279° (W) 1,430 4.1 -24.5°
Maximum altitude 20:57:51 26° 339° (NNW) 811 2.8 -24.8°
Enters shadow 20:58:07 26° 348° (NNW) 819 2.8 -24.8°
